Weather History for Prague, Czech Republic

Change the Weather History Date:

Friday, October 12, 2012

  Actual Average Record
Temperature  
Mean Temperature 40 °F -  
Max Temperature 50 °F 51 °F 68 °F (2001)
Min Temperature 30 °F 36 °F 26 °F (2004)
Degree Days  
Heating Degree Days 25    
Moisture  
Dew Point 40 °F    
Average Humidity 90    
Maximum Humidity 100    
Minimum Humidity 72    
Precipitation  
Precipitation 0.12 in 0.04 in - ()
Sea Level Pressure  
Sea Level Pressure 29.87 in    
Wind  
Wind Speed 4 mph ()    
Max Wind Speed 9 mph    
Max Gust Speed -    
Visibility 4.2 miles    
Events Fog , Rain    
Averages and records for this station are not official NWS values.
T = Trace of Precipitation, MM = Missing Value Source: Averaged Metar Reports

Daily Weather History Graph

Daily Weather History Graph

Search for Another Location

Airport:

Trip Planner

Search our weather history database for the weather conditions in past years. The results will help you decide how hot, cold, wet, or windy it might be!

Date:

Astronomy

Oct. 12, 2012 Rise Set
Actual Time 7:20 AM CEST 6:17 PM CEST
Civil Twilight 6:48 AM CEST 6:49 PM CEST
Nautical Twilight 6:10 AM CEST 7:27 PM CEST
Astronomical Twilight 5:32 AM CEST 8:04 PM CEST
Moon 3:26 AM CEST (10/12) 4:31 PM CEST (10/12)
Length of Visible Light 12h 01m
Length of Day
10h 56m
Waning Crescent, 12% of the Moon is Illuminated
Oct 12
Waning Crescent
Oct 15
New
Oct 22
First Quarter
Oct 29
Full
Nov 7
Last Quarter

Hourly Weather History & Observations

Time (CEST) Temp. Windchill Dew Point Humidity Pressure Visibility Wind Dir Wind Speed Gust Speed Precip Events Conditions
12:00 AM 39.2 °F 35.0 °F 33.8 °F 81% 29.92 in - East 5.8 mph - N/A   Clear
12:30 AM 39.2 °F 37.0 °F 33.8 °F 81% 29.92 in - East 3.5 mph - N/A   Clear
1:00 AM 39.2 °F 37.0 °F 33.8 °F 81% 29.92 in - East 3.5 mph - N/A   Clear
1:30 AM 37.4 °F - 33.8 °F 87% 29.92 in - East 2.3 mph - N/A   Clear
2:00 AM 38 °F - 35 °F 86% 29.97 in 9 mi East 4.5 mph - -  
2:00 AM 39.2 °F - 35.6 °F 87% 29.92 in - East 2.3 mph - N/A   Clear
2:30 AM 33.8 °F 29.6 °F 30.2 °F 87% 29.92 in - ESE 4.6 mph - N/A   Clear
3:00 AM 35.6 °F 31.7 °F 33.8 °F 93% 29.89 in - ESE 4.6 mph - N/A   Clear
3:30 AM 35.6 °F 30.7 °F 33.8 °F 93% 29.89 in - East 5.8 mph - N/A   Clear
4:00 AM 35.6 °F 29.9 °F 33.8 °F 93% 29.89 in 5.6 mi East 6.9 mph - N/A   Unknown
4:30 AM 33.8 °F 27.0 °F 32.0 °F 93% 29.89 in 5.0 mi East 8.1 mph - N/A   Unknown
5:00 AM 33.8 °F 28.6 °F 33.8 °F 100% 29.89 in 5.0 mi ESE 5.8 mph - N/A   Unknown
5:30 AM 33.8 °F 30.8 °F 32.0 °F 93% 29.89 in 5.0 mi East 3.5 mph - N/A Fog Fog
6:00 AM 32.0 °F 27.5 °F 30.2 °F 93% 29.89 in 4.3 mi East 4.6 mph - N/A Fog Fog
6:30 AM 30.2 °F 26.7 °F 30.2 °F 100% 29.89 in 4.3 mi Variable 3.5 mph - N/A Fog Fog
7:00 AM 32.0 °F - 30.2 °F 93% 29.89 in 2.8 mi Variable 1.2 mph - N/A Fog Shallow Fog
7:31 AM 32.0 °F - 30.2 °F 93% 29.89 in 1.9 mi Variable 1.2 mph - N/A Fog Patches of Fog
7:35 AM 30.2 °F - 30.2 °F 100% 29.89 in 1.6 mi Variable 1.2 mph - N/A Fog Patches of Fog
8:00 AM 31 °F - 30 °F 94% 29.95 in 1 mi East 2.2 mph - - Fog Patches of Fog
8:00 AM 30.2 °F - 30.2 °F 100% 29.89 in 0.7 mi Calm Calm - N/A Fog Patches of Fog
8:30 AM 32.0 °F 28.7 °F 32.0 °F 100% 29.89 in 1.9 mi ESE 3.5 mph - N/A   Unknown
9:00 AM 35.6 °F - 35.6 °F 100% 29.89 in 3.1 mi Variable 2.3 mph - N/A   Mist
9:08 AM 37.4 °F 34.9 °F 35.6 °F 93% 29.89 in 3.1 mi East 3.5 mph - N/A   Mostly Cloudy
9:30 AM 37.4 °F - 37.4 °F 100% 29.89 in 4.3 mi Variable 2.3 mph - N/A   Mostly Cloudy
10:00 AM 41.0 °F 39.0 °F 37.4 °F 87% 29.89 in 5.0 mi SSE 3.5 mph - N/A   Mostly Cloudy
10:30 AM 41.0 °F 38.0 °F 37.4 °F 87% 29.89 in 5.0 mi East 4.6 mph - N/A   Overcast
11:00 AM 42.8 °F 40.1 °F 39.2 °F 87% 29.89 in 5.0 mi East 4.6 mph - N/A   Overcast
11:30 AM 44.6 °F 41.4 °F 39.2 °F 81% 29.89 in 4.3 mi East 5.8 mph - N/A   Mostly Cloudy
12:00 PM 46.4 °F 41.9 °F 41.0 °F 81% 29.86 in 5.6 mi East 9.2 mph - N/A   Mostly Cloudy
12:30 PM 46.4 °F 41.9 °F 41.0 °F 81% 29.86 in 6.2 mi East 9.2 mph - N/A   Mostly Cloudy
1:00 PM 46.4 °F 42.9 °F 41.0 °F 81% 29.86 in 6.2 mi East 6.9 mph - N/A   Overcast
1:30 PM 48.2 °F - 42.8 °F 82% 29.86 in 6.2 mi ESE 8.1 mph - N/A   Overcast
2:00 PM 49 °F - 43 °F 72% 29.88 in 7 mi ESE 6.7 mph - -   Partly Cloudy
2:00 PM 48.2 °F - 42.8 °F 82% 29.86 in 6.2 mi ESE 6.9 mph - N/A   Overcast
2:30 PM 50.0 °F - 42.8 °F 76% 29.83 in 6.2 mi East 6.9 mph - N/A   Overcast
3:00 PM 50.0 °F - 42.8 °F 76% 29.83 in 6.2 mi ESE 6.9 mph - N/A   Mostly Cloudy
3:30 PM 50.0 °F - 42.8 °F 76% 29.83 in 6.2 mi ESE 5.8 mph - N/A   Mostly Cloudy
3:48 PM 51.8 °F - 44.6 °F 76% 29.83 in 6.2 mi ESE 3.5 mph - N/A Rain Light Rain
4:00 PM 50.0 °F - 44.6 °F 82% 29.83 in 6.2 mi ESE 3.5 mph - N/A Rain Light Rain
4:30 PM 50.0 °F - 46.4 °F 87% 29.83 in 4.3 mi ESE 3.5 mph - N/A Rain Light Rain
4:35 PM 50.0 °F - 46.4 °F 87% 29.83 in 3.7 mi SE 2.3 mph - N/A Rain Rain
4:45 PM 50.0 °F - 46.4 °F 87% 29.83 in 3.7 mi SE 3.5 mph - N/A Rain Light Rain
5:00 PM 50.0 °F - 46.4 °F 87% 29.83 in 5.0 mi SE 3.5 mph - N/A Rain Light Rain
5:30 PM 48.2 °F - 46.4 °F 93% 29.83 in 4.3 mi SSE 4.6 mph - N/A Rain Light Rain
5:43 PM 48.2 °F - 46.4 °F 93% 29.83 in 3.1 mi South 4.6 mph - N/A Rain Light Rain
6:00 PM 48.2 °F - 46.4 °F 93% 29.83 in 3.7 mi South 4.6 mph - N/A Rain Light Rain
6:19 PM 48.2 °F - 46.4 °F 93% 29.83 in 3.1 mi South 4.6 mph - N/A Rain Light Rain
6:30 PM 48.2 °F - 46.4 °F 93% 29.83 in 3.1 mi South 4.6 mph - N/A Rain Light Rain
7:00 PM 48.2 °F - 46.4 °F 93% 29.86 in 3.1 mi South 3.5 mph - N/A Rain Light Rain
7:30 PM 48.2 °F - 46.4 °F 93% 29.86 in 3.1 mi South 4.6 mph - N/A Rain Light Rain
7:45 PM 48.2 °F - 46.4 °F 93% 29.86 in 3.1 mi South 3.5 mph - N/A Rain Light Rain
8:00 PM 48 °F - 47 °F 96% 29.87 in 4 mi South 2.2 mph - - Rain Light Rain
8:00 PM 48.2 °F - 46.4 °F 93% 29.86 in 3.7 mi SSW 3.5 mph - N/A Rain Light Rain
8:30 PM 48.2 °F - 46.4 °F 93% 29.86 in 3.1 mi SSW 3.5 mph - N/A Rain Light Rain
8:54 PM 48.2 °F - 46.4 °F 93% 29.86 in 2.5 mi SSW 4.6 mph - N/A Rain Light Rain
9:00 PM 48.2 °F - 46.4 °F 93% 29.86 in 2.5 mi West 3.5 mph - N/A Rain Light Rain
9:30 PM 48.2 °F - 46.4 °F 93% 29.86 in 2.5 mi Variable 1.2 mph - N/A Rain Light Rain
10:00 PM 48.2 °F - 46.4 °F 93% 29.86 in 2.5 mi West 2.3 mph - N/A Rain Light Rain
10:30 PM 48.2 °F - 46.4 °F 93% 29.89 in 3.7 mi West 4.6 mph - N/A Rain Light Rain
11:00 PM 48.2 °F - 46.4 °F 93% 29.89 in 5.0 mi WSW 8.1 mph - N/A Rain Light Rain
11:30 PM 48.2 °F - 48.2 °F 100% 29.89 in 5.0 mi WSW 9.2 mph - N/A   Partly Cloudy